iso_date,epoch_date,Year,Hour,Min,DOY,POS_DOY,Lat,Lon,BP,Ts,Ta,has_bp,has_ts,has_ta,BuoyID,Buoy_Type,Buoy_Owner,Logistics,Hemisphere
2020-07-16T00:09:56Z,1594858196,2020,0,10,198.0069,198.0069,79.58187,4.94389,-999.00,-999.00,-999.0,no,no,no,300534060653590,NOMAD,AWI/USIABP,MOSAiC,North
2020-07-16T00:20:00Z,1594858801,2020,0,20,198.0139,198.0139,79.58139,4.94265,-999.00,-999.00,-999.0,no,no,no,300534060653590,NOMAD,AWI/USIABP,MOSAiC,North
2020-07-16T00:29:57Z,1594859397,2020,0,30,198.0208,198.0208,79.58098,4.94073,-999.00,-999.00,-999.0,no,no,no,300534060653590,NOMAD,AWI/USIABP,MOSAiC,North
2020-07-16T00:40:01Z,1594860002,2020,0,40,198.0278,198.0278,79.58065,4.9385,-999.00,-999.00,-999.0,no,no,no,300534060653590,NOMAD,AWI/USIABP,MOSAiC,North
2020-07-16T00:49:58Z,1594860598,2020,0,50,198.0347,198.0347,79.58036,4.93674,-999.00,-999.00,-999.0,no,no,no,300534060653590,NOMAD,AWI/USIABP,MOSAiC,North
2020-07-16T01:00:02Z,1594861203,2020,1,0,198.0417,198.0417,79.58007,4.93527,-999.00,-999.00,-999.0,no,no,no,300534060653590,NOMAD,AWI/USIABP,MOSAiC,North
2020-07-16T01:09:59Z,1594861799,2020,1,10,198.0486,198.0486,79.57972,4.93327,-999.00,-999.00,-999.0,no,no,no,300534060653590,NOMAD,AWI/USIABP,MOSAiC,North
2020-07-16T01:20:03Z,1594862404,2020,1,20,198.0556,198.0556,79.57947,4.93087,-999.00,-999.00,-999.0,no,no,no,300534060653590,NOMAD,AWI/USIABP,MOSAiC,North
2020-07-16T01:30:00Z,1594863000,2020,1,30,198.0625,198.0625,79.57922,4.92867,-999.00,-999.00,-999.0,no,no,no,300534060653590,NOMAD,AWI/USIABP,MOSAiC,North
2020-07-16T01:39:56Z,1594863596,2020,1,40,198.0694,198.0694,79.57882,4.92608,-999.00,-999.00,-999.0,no,no,no,300534060653590,NOMAD,AWI/USIABP,MOSAiC,North
2020-07-16T01:50:00Z,1594864201,2020,1,50,198.0764,198.0764,79.57846,4.92352,-999.00,-999.00,-999.0,no,no,no,300534060653590,NOMAD,AWI/USIABP,MOSAiC,North
2020-07-16T01:59:57Z,1594864797,2020,2,0,198.0833,198.0833,79.57807,4.92064,-999.00,-999.00,-999.0,no,no,no,300534060653590,NOMAD,AWI/USIABP,MOSAiC,North
2020-07-16T02:10:01Z,1594865402,2020,2,10,198.0903,198.0903,79.57765,4.91808,-999.00,-999.00,-999.0,no,no,no,300534060653590,NOMAD,AWI/USIABP,MOSAiC,North
2020-07-16T02:19:58Z,1594865998,2020,2,20,198.0972,198.0972,79.57742,4.91544,-999.00,-999.00,-999.0,no,no,no,300534060653590,NOMAD,AWI/USIABP,MOSAiC,North
2020-07-16T02:30:02Z,1594866603,2020,2,30,198.1042,198.1042,79.57724,4.91288,-999.00,-999.00,-999.0,no,no,no,300534060653590,NOMAD,AWI/USIABP,MOSAiC,North
2020-07-16T02:39:59Z,1594867199,2020,2,40,198.1111,198.1111,79.57697,4.91114,-999.00,-999.00,-999.0,no,no,no,300534060653590,NOMAD,AWI/USIABP,MOSAiC,North
2020-07-16T02:50:03Z,1594867804,2020,2,50,198.1181,198.1181,79.57683,4.90868,-999.00,-999.00,-999.0,no,no,no,300534060653590,NOMAD,AWI/USIABP,MOSAiC,North
2020-07-16T03:00:00Z,1594868400,2020,3,0,198.125,198.125,79.57682,4.90525,-999.00,-999.00,-999.0,no,no,no,300534060653590,NOMAD,AWI/USIABP,MOSAiC,North
2020-07-16T03:09:56Z,1594868996,2020,3,10,198.1319,198.1319,79.57675,4.90227,-999.00,-999.00,-999.0,no,no,no,300534060653590,NOMAD,AWI/USIABP,MOSAiC,North
2020-07-16T03:20:00Z,1594869601,2020,3,20,198.1389,198.1389,79.57655,4.89982,-999.00,-999.00,-999.0,no,no,no,300534060653590,NOMAD,AWI/USIABP,MOSAiC,North
2020-07-16T03:29:57Z,1594870197,2020,3,30,198.1458,198.1458,79.57645,4.89739,-999.00,-999.00,-999.0,no,no,no,300534060653590,NOMAD,AWI/USIABP,MOSAiC,North
2020-07-16T03:40:01Z,1594870802,2020,3,40,198.1528,198.1528,79.57633,4.89479,-999.00,-999.00,-999.0,no,no,no,300534060653590,NOMAD,AWI/USIABP,MOSAiC,North
2020-07-16T03:49:58Z,1594871398,2020,3,50,198.1597,198.1597,79.5763,4.89194,-999.00,-999.00,-999.0,no,no,no,300534060653590,NOMAD,AWI/USIABP,MOSAiC,North
2020-07-16T04:00:02Z,1594872003,2020,4,0,198.1667,198.1667,79.57617,4.8897,-999.00,-999.00,-999.0,no,no,no,300534060653590,NOMAD,AWI/USIABP,MOSAiC,North
2020-07-16T04:09:59Z,1594872599,2020,4,10,198.1736,198.1736,79.57604,4.88714,-999.00,-999.00,-999.0,no,no,no,300534060653590,NOMAD,AWI/USIABP,MOSAiC,North
2020-07-16T04:20:03Z,1594873204,2020,4,20,198.1806,198.1806,79.57583,4.88495,-999.00,-999.00,-999.0,no,no,no,300534060653590,NOMAD,AWI/USIABP,MOSAiC,North
2020-07-16T04:30:00Z,1594873800,2020,4,30,198.1875,198.1875,79.57566,4.88308,-999.00,-999.00,-999.0,no,no,no,300534060653590,NOMAD,AWI/USIABP,MOSAiC,North
2020-07-16T04:39:56Z,1594874396,2020,4,40,198.1944,198.1944,79.57549,4.88109,-999.00,-999.00,-999.0,no,no,no,300534060653590,NOMAD,AWI/USIABP,MOSAiC,North
2020-07-16T04:50:00Z,1594875001,2020,4,50,198.2014,198.2014,79.57536,4.87996,-999.00,-999.00,-999.0,no,no,no,300534060653590,NOMAD,AWI/USIABP,MOSAiC,North
2020-07-16T04:59:57Z,1594875597,2020,5,0,198.2083,198.2083,79.57517,4.87952,-999.00,-999.00,-999.0,no,no,no,300534060653590,NOMAD,AWI/USIABP,MOSAiC,North
2020-07-16T05:10:01Z,1594876202,2020,5,10,198.2153,198.2153,79.57507,4.87939,-999.00,-999.00,-999.0,no,no,no,300534060653590,NOMAD,AWI/USIABP,MOSAiC,North
2020-07-16T05:19:58Z,1594876798,2020,5,20,198.2222,198.2222,79.57492,4.87929,-999.00,-999.00,-999.0,no,no,no,300534060653590,NOMAD,AWI/USIABP,MOSAiC,North
2020-07-16T05:30:02Z,1594877403,2020,5,30,198.2292,198.2292,79.57483,4.8792,-999.00,-999.00,-999.0,no,no,no,300534060653590,NOMAD,AWI/USIABP,MOSAiC,North
2020-07-16T05:39:59Z,1594877999,2020,5,40,198.2361,198.2361,79.57462,4.87908,-999.00,-999.00,-999.0,no,no,no,300534060653590,NOMAD,AWI/USIABP,MOSAiC,North
2020-07-16T05:50:03Z,1594878604,2020,5,50,198.2431,198.2431,79.57424,4.87889,-999.00,-999.00,-999.0,no,no,no,300534060653590,NOMAD,AWI/USIABP,MOSAiC,North
2020-07-16T06:00:00Z,1594879200,2020,6,0,198.25,198.25,79.57389,4.87914,-999.00,-999.00,-999.0,no,no,no,300534060653590,NOMAD,AWI/USIABP,MOSAiC,North
2020-07-16T06:09:56Z,1594879796,2020,6,10,198.2569,198.2569,79.57358,4.87829,-999.00,-999.00,-999.0,no,no,no,300534060653590,NOMAD,AWI/USIABP,MOSAiC,North
2020-07-16T06:20:00Z,1594880401,2020,6,20,198.2639,198.2639,79.57325,4.87776,-999.00,-999.00,-999.0,no,no,no,300534060653590,NOMAD,AWI/USIABP,MOSAiC,North
2020-07-16T06:29:57Z,1594880997,2020,6,30,198.2708,198.2708,79.57293,4.87764,-999.00,-999.00,-999.0,no,no,no,300534060653590,NOMAD,AWI/USIABP,MOSAiC,North
2020-07-16T06:40:01Z,1594881602,2020,6,40,198.2778,198.2778,79.57252,4.87679,-999.00,-999.00,-999.0,no,no,no,300534060653590,NOMAD,AWI/USIABP,MOSAiC,North
2020-07-16T06:49:58Z,1594882198,2020,6,50,198.2847,198.2847,79.57199,4.87632,-999.00,-999.00,-999.0,no,no,no,300534060653590,NOMAD,AWI/USIABP,MOSAiC,North
2020-07-16T07:00:02Z,1594882803,2020,7,0,198.2917,198.2917,79.57151,4.87676,-999.00,-999.00,-999.0,no,no,no,300534060653590,NOMAD,AWI/USIABP,MOSAiC,North
2020-07-16T07:09:59Z,1594883399,2020,7,10,198.2986,198.2986,79.57098,4.87649,-999.00,-999.00,-999.0,no,no,no,300534060653590,NOMAD,AWI/USIABP,MOSAiC,North
2020-07-16T07:20:03Z,1594884004,2020,7,20,198.3056,198.3056,79.57037,4.87592,-999.00,-999.00,-999.0,no,no,no,300534060653590,NOMAD,AWI/USIABP,MOSAiC,North
2020-07-16T07:30:00Z,1594884600,2020,7,30,198.3125,198.3125,79.56982,4.87565,-999.00,-999.00,-999.0,no,no,no,300534060653590,NOMAD,AWI/USIABP,MOSAiC,North
2020-07-16T07:39:56Z,1594885196,2020,7,40,198.3194,198.3194,79.56927,4.87471,-999.00,-999.00,-999.0,no,no,no,300534060653590,NOMAD,AWI/USIABP,MOSAiC,North
2020-07-16T07:50:00Z,1594885801,2020,7,50,198.3264,198.3264,79.56864,4.8749,-999.00,-999.00,-999.0,no,no,no,300534060653590,NOMAD,AWI/USIABP,MOSAiC,North
2020-07-16T07:59:57Z,1594886397,2020,8,0,198.3333,198.3333,79.568,4.87455,-999.00,-999.00,-999.0,no,no,no,300534060653590,NOMAD,AWI/USIABP,MOSAiC,North
2020-07-16T08:10:01Z,1594887002,2020,8,10,198.3403,198.3403,79.56724,4.87431,-999.00,-999.00,-999.0,no,no,no,300534060653590,NOMAD,AWI/USIABP,MOSAiC,North
2020-07-16T08:19:58Z,1594887598,2020,8,20,198.3472,198.3472,79.56654,4.87451,-999.00,-999.00,-999.0,no,no,no,300534060653590,NOMAD,AWI/USIABP,MOSAiC,North
2020-07-16T08:30:02Z,1594888203,2020,8,30,198.3542,198.3542,79.56578,4.87486,-999.00,-999.00,-999.0,no,no,no,300534060653590,NOMAD,AWI/USIABP,MOSAiC,North
2020-07-16T08:39:59Z,1594888799,2020,8,40,198.3611,198.3611,79.56503,4.87445,-999.00,-999.00,-999.0,no,no,no,300534060653590,NOMAD,AWI/USIABP,MOSAiC,North
2020-07-16T08:50:03Z,1594889404,2020,8,50,198.3681,198.3681,79.56424,4.87363,-999.00,-999.00,-999.0,no,no,no,300534060653590,NOMAD,AWI/USIABP,MOSAiC,North
2020-07-16T09:00:00Z,1594890000,2020,9,0,198.375,198.375,79.56348,4.87339,-999.00,-999.00,-999.0,no,no,no,300534060653590,NOMAD,AWI/USIABP,MOSAiC,North
2020-07-16T09:09:56Z,1594890596,2020,9,10,198.3819,198.3819,79.56278,4.87326,-999.00,-999.00,-999.0,no,no,no,300534060653590,NOMAD,AWI/USIABP,MOSAiC,North
2020-07-16T09:20:00Z,1594891201,2020,9,20,198.3889,198.3889,79.562,4.87313,-999.00,-999.00,-999.0,no,no,no,300534060653590,NOMAD,AWI/USIABP,MOSAiC,North
2020-07-16T09:29:57Z,1594891797,2020,9,30,198.3958,198.3958,79.56119,4.87223,-999.00,-999.00,-999.0,no,no,no,300534060653590,NOMAD,AWI/USIABP,MOSAiC,North
2020-07-16T09:40:01Z,1594892402,2020,9,40,198.4028,198.4028,79.56047,4.87198,-999.00,-999.00,-999.0,no,no,no,300534060653590,NOMAD,AWI/USIABP,MOSAiC,North
2020-07-16T09:49:58Z,1594892998,2020,9,50,198.4097,198.4097,79.55982,4.87114,-999.00,-999.00,-999.0,no,no,no,300534060653590,NOMAD,AWI/USIABP,MOSAiC,North
2020-07-16T10:00:02Z,1594893603,2020,10,0,198.4167,198.4167,79.55915,4.86998,-999.00,-999.00,-999.0,no,no,no,300534060653590,NOMAD,AWI/USIABP,MOSAiC,North
2020-07-16T10:09:59Z,1594894199,2020,10,10,198.4236,198.4236,79.5584,4.86864,-999.00,-999.00,-999.0,no,no,no,300534060653590,NOMAD,AWI/USIABP,MOSAiC,North
2020-07-16T10:20:03Z,1594894804,2020,10,20,198.4306,198.4306,79.55765,4.86715,-999.00,-999.00,-999.0,no,no,no,300534060653590,NOMAD,AWI/USIABP,MOSAiC,North
2020-07-16T10:30:00Z,1594895400,2020,10,30,198.4375,198.4375,79.557,4.86512,-999.00,-999.00,-999.0,no,no,no,300534060653590,NOMAD,AWI/USIABP,MOSAiC,North
2020-07-16T10:39:56Z,1594895996,2020,10,40,198.4444,198.4444,79.55636,4.86319,-999.00,-999.00,-999.0,no,no,no,300534060653590,NOMAD,AWI/USIABP,MOSAiC,North
2020-07-16T10:50:00Z,1594896601,2020,10,50,198.4514,198.4514,79.55571,4.86061,-999.00,-999.00,-999.0,no,no,no,300534060653590,NOMAD,AWI/USIABP,MOSAiC,North
2020-07-16T10:59:57Z,1594897197,2020,11,0,198.4583,198.4583,79.55503,4.85705,-999.00,-999.00,-999.0,no,no,no,300534060653590,NOMAD,AWI/USIABP,MOSAiC,North
2020-07-16T11:10:01Z,1594897802,2020,11,10,198.4653,198.4653,79.55419,4.85509,-999.00,-999.00,-999.0,no,no,no,300534060653590,NOMAD,AWI/USIABP,MOSAiC,North
2020-07-16T11:19:58Z,1594898398,2020,11,20,198.4722,198.4722,79.55324,4.85314,-999.00,-999.00,-999.0,no,no,no,300534060653590,NOMAD,AWI/USIABP,MOSAiC,North
2020-07-16T11:30:02Z,1594899003,2020,11,30,198.4792,198.4792,79.55239,4.8507,-999.00,-999.00,-999.0,no,no,no,300534060653590,NOMAD,AWI/USIABP,MOSAiC,North
2020-07-16T11:39:59Z,1594899599,2020,11,40,198.4861,198.4861,79.55157,4.84899,-999.00,-999.00,-999.0,no,no,no,300534060653590,NOMAD,AWI/USIABP,MOSAiC,North
2020-07-16T11:50:03Z,1594900204,2020,11,50,198.4931,198.4931,79.55078,4.84742,-999.00,-999.00,-999.0,no,no,no,300534060653590,NOMAD,AWI/USIABP,MOSAiC,North
2020-07-16T12:00:00Z,1594900800,2020,12,0,198.5,198.5,79.55009,4.84583,-999.00,-999.00,-999.0,no,no,no,300534060653590,NOMAD,AWI/USIABP,MOSAiC,North
2020-07-16T12:09:56Z,1594901396,2020,12,10,198.5069,198.5069,79.54929,4.84423,-999.00,-999.00,-999.0,no,no,no,300534060653590,NOMAD,AWI/USIABP,MOSAiC,North
2020-07-16T12:20:00Z,1594902001,2020,12,20,198.5139,198.5139,79.54849,4.84255,-999.00,-999.00,-999.0,no,no,no,300534060653590,NOMAD,AWI/USIABP,MOSAiC,North
2020-07-16T12:29:57Z,1594902597,2020,12,30,198.5208,198.5208,79.54781,4.84011,-999.00,-999.00,-999.0,no,no,no,300534060653590,NOMAD,AWI/USIABP,MOSAiC,North
2020-07-16T12:40:01Z,1594903202,2020,12,40,198.5278,198.5278,79.54715,4.83813,-999.00,-999.00,-999.0,no,no,no,300534060653590,NOMAD,AWI/USIABP,MOSAiC,North
2020-07-16T12:49:58Z,1594903798,2020,12,50,198.5347,198.5347,79.54652,4.83586,-999.00,-999.00,-999.0,no,no,no,300534060653590,NOMAD,AWI/USIABP,MOSAiC,North
2020-07-16T13:00:02Z,1594904403,2020,13,0,198.5417,198.5417,79.5459,4.83363,-999.00,-999.00,-999.0,no,no,no,300534060653590,NOMAD,AWI/USIABP,MOSAiC,North
2020-07-16T13:09:59Z,1594904999,2020,13,10,198.5486,198.5486,79.54529,4.8318,-999.00,-999.00,-999.0,no,no,no,300534060653590,NOMAD,AWI/USIABP,MOSAiC,North
2020-07-16T13:20:03Z,1594905604,2020,13,20,198.5556,198.5556,79.54457,4.83011,-999.00,-999.00,-999.0,no,no,no,300534060653590,NOMAD,AWI/USIABP,MOSAiC,North
2020-07-16T13:30:00Z,1594906200,2020,13,30,198.5625,198.5625,79.54385,4.82802,-999.00,-999.00,-999.0,no,no,no,300534060653590,NOMAD,AWI/USIABP,MOSAiC,North
2020-07-16T13:39:56Z,1594906796,2020,13,40,198.5694,198.5694,79.54327,4.82578,-999.00,-999.00,-999.0,no,no,no,300534060653590,NOMAD,AWI/USIABP,MOSAiC,North
2020-07-16T13:50:00Z,1594907401,2020,13,50,198.5764,198.5764,79.54268,4.82386,-999.00,-999.00,-999.0,no,no,no,300534060653590,NOMAD,AWI/USIABP,MOSAiC,North
2020-07-16T13:59:57Z,1594907997,2020,14,0,198.5833,198.5833,79.54197,4.82208,-999.00,-999.00,-999.0,no,no,no,300534060653590,NOMAD,AWI/USIABP,MOSAiC,North
2020-07-16T14:10:01Z,1594908602,2020,14,10,198.5903,198.5903,79.54136,4.82057,-999.00,-999.00,-999.0,no,no,no,300534060653590,NOMAD,AWI/USIABP,MOSAiC,North
2020-07-16T14:19:58Z,1594909198,2020,14,20,198.5972,198.5972,79.54075,4.81952,-999.00,-999.00,-999.0,no,no,no,300534060653590,NOMAD,AWI/USIABP,MOSAiC,North
2020-07-16T14:30:02Z,1594909803,2020,14,30,198.6042,198.6042,79.54027,4.81842,-999.00,-999.00,-999.0,no,no,no,300534060653590,NOMAD,AWI/USIABP,MOSAiC,North
2020-07-16T14:39:59Z,1594910399,2020,14,40,198.6111,198.6111,79.53982,4.81695,-999.00,-999.00,-999.0,no,no,no,300534060653590,NOMAD,AWI/USIABP,MOSAiC,North
2020-07-16T14:50:03Z,1594911004,2020,14,50,198.6181,198.6181,79.53928,4.81596,-999.00,-999.00,-999.0,no,no,no,300534060653590,NOMAD,AWI/USIABP,MOSAiC,North
2020-07-16T15:00:00Z,1594911600,2020,15,0,198.625,198.625,79.53904,4.81366,-999.00,-999.00,-999.0,no,no,no,300534060653590,NOMAD,AWI/USIABP,MOSAiC,North
2020-07-16T15:09:56Z,1594912196,2020,15,10,198.6319,198.6319,79.53888,4.81127,-999.00,-999.00,-999.0,no,no,no,300534060653590,NOMAD,AWI/USIABP,MOSAiC,North
2020-07-16T15:20:00Z,1594912801,2020,15,20,198.6389,198.6389,79.53865,4.80913,-999.00,-999.00,-999.0,no,no,no,300534060653590,NOMAD,AWI/USIABP,MOSAiC,North
2020-07-16T15:29:57Z,1594913397,2020,15,30,198.6458,198.6458,79.53853,4.80686,-999.00,-999.00,-999.0,no,no,no,300534060653590,NOMAD,AWI/USIABP,MOSAiC,North
2020-07-16T15:40:01Z,1594914002,2020,15,40,198.6528,198.6528,79.53859,4.80529,-999.00,-999.00,-999.0,no,no,no,300534060653590,NOMAD,AWI/USIABP,MOSAiC,North
2020-07-16T15:49:58Z,1594914598,2020,15,50,198.6597,198.6597,79.53858,4.80446,-999.00,-999.00,-999.0,no,no,no,300534060653590,NOMAD,AWI/USIABP,MOSAiC,North
2020-07-16T16:00:02Z,1594915203,2020,16,0,198.6667,198.6667,79.53848,4.80407,-999.00,-999.00,-999.0,no,no,no,300534060653590,NOMAD,AWI/USIABP,MOSAiC,North
2020-07-16T16:09:59Z,1594915799,2020,16,10,198.6736,198.6736,79.5384,4.80376,-999.00,-999.00,-999.0,no,no,no,300534060653590,NOMAD,AWI/USIABP,MOSAiC,North
2020-07-16T16:20:03Z,1594916404,2020,16,20,198.6806,198.6806,79.53834,4.80345,-999.00,-999.00,-999.0,no,no,no,300534060653590,NOMAD,AWI/USIABP,MOSAiC,North
2020-07-16T16:30:00Z,1594917000,2020,16,30,198.6875,198.6875,79.53838,4.80284,-999.00,-999.00,-999.0,no,no,no,300534060653590,NOMAD,AWI/USIABP,MOSAiC,North
2020-07-16T16:39:56Z,1594917596,2020,16,40,198.6944,198.6944,79.53848,4.80255,-999.00,-999.00,-999.0,no,no,no,300534060653590,NOMAD,AWI/USIABP,MOSAiC,North
2020-07-16T16:50:00Z,1594918201,2020,16,50,198.7014,198.7014,79.5385,4.80276,-999.00,-999.00,-999.0,no,no,no,300534060653590,NOMAD,AWI/USIABP,MOSAiC,North
2020-07-16T16:59:57Z,1594918797,2020,17,0,198.7083,198.7083,79.53856,4.80283,-999.00,-999.00,-999.0,no,no,no,300534060653590,NOMAD,AWI/USIABP,MOSAiC,North
2020-07-16T17:10:01Z,1594919402,2020,17,10,198.7153,198.7153,79.53869,4.80361,-999.00,-999.00,-999.0,no,no,no,300534060653590,NOMAD,AWI/USIABP,MOSAiC,North
2020-07-16T17:19:58Z,1594919998,2020,17,20,198.7222,198.7222,79.53878,4.80503,-999.00,-999.00,-999.0,no,no,no,300534060653590,NOMAD,AWI/USIABP,MOSAiC,North
2020-07-16T17:30:02Z,1594920603,2020,17,30,198.7292,198.7292,79.53882,4.80759,-999.00,-999.00,-999.0,no,no,no,300534060653590,NOMAD,AWI/USIABP,MOSAiC,North
2020-07-16T17:39:59Z,1594921199,2020,17,40,198.7361,198.7361,79.53885,4.8102,-999.00,-999.00,-999.0,no,no,no,300534060653590,NOMAD,AWI/USIABP,MOSAiC,North
2020-07-16T17:50:03Z,1594921804,2020,17,50,198.7431,198.7431,79.53888,4.81281,-999.00,-999.00,-999.0,no,no,no,300534060653590,NOMAD,AWI/USIABP,MOSAiC,North
2020-07-16T18:00:00Z,1594922400,2020,18,0,198.75,198.75,79.53884,4.81601,-999.00,-999.00,-999.0,no,no,no,300534060653590,NOMAD,AWI/USIABP,MOSAiC,North
2020-07-16T18:09:56Z,1594922996,2020,18,10,198.7569,198.7569,79.53889,4.81877,-999.00,-999.00,-999.0,no,no,no,300534060653590,NOMAD,AWI/USIABP,MOSAiC,North
2020-07-16T18:20:00Z,1594923601,2020,18,20,198.7639,198.7639,79.53909,4.82119,-999.00,-999.00,-999.0,no,no,no,300534060653590,NOMAD,AWI/USIABP,MOSAiC,North
2020-07-16T18:29:57Z,1594924197,2020,18,30,198.7708,198.7708,79.53926,4.82431,-999.00,-999.00,-999.0,no,no,no,300534060653590,NOMAD,AWI/USIABP,MOSAiC,North
2020-07-16T18:40:01Z,1594924802,2020,18,40,198.7778,198.7778,79.53922,4.82726,-999.00,-999.00,-999.0,no,no,no,300534060653590,NOMAD,AWI/USIABP,MOSAiC,North
2020-07-16T18:49:58Z,1594925398,2020,18,50,198.7847,198.7847,79.53912,4.83047,-999.00,-999.00,-999.0,no,no,no,300534060653590,NOMAD,AWI/USIABP,MOSAiC,North
2020-07-16T19:00:02Z,1594926003,2020,19,0,198.7917,198.7917,79.53908,4.83283,-999.00,-999.00,-999.0,no,no,no,300534060653590,NOMAD,AWI/USIABP,MOSAiC,North
2020-07-16T19:09:59Z,1594926599,2020,19,10,198.7986,198.7986,79.53904,4.83545,-999.00,-999.00,-999.0,no,no,no,300534060653590,NOMAD,AWI/USIABP,MOSAiC,North
2020-07-16T19:20:03Z,1594927204,2020,19,20,198.8056,198.8056,79.53895,4.83835,-999.00,-999.00,-999.0,no,no,no,300534060653590,NOMAD,AWI/USIABP,MOSAiC,North
2020-07-16T19:30:00Z,1594927800,2020,19,30,198.8125,198.8125,79.53892,4.84169,-999.00,-999.00,-999.0,no,no,no,300534060653590,NOMAD,AWI/USIABP,MOSAiC,North
2020-07-16T19:39:56Z,1594928396,2020,19,40,198.8194,198.8194,79.53884,4.84521,-999.00,-999.00,-999.0,no,no,no,300534060653590,NOMAD,AWI/USIABP,MOSAiC,North
2020-07-16T19:50:00Z,1594929001,2020,19,50,198.8264,198.8264,79.53877,4.8489,-999.00,-999.00,-999.0,no,no,no,300534060653590,NOMAD,AWI/USIABP,MOSAiC,North
2020-07-16T19:59:57Z,1594929597,2020,20,0,198.8333,198.8333,79.53863,4.85294,-999.00,-999.00,-999.0,no,no,no,300534060653590,NOMAD,AWI/USIABP,MOSAiC,North
2020-07-16T20:10:01Z,1594930202,2020,20,10,198.8403,198.8403,79.53856,4.85589,-999.00,-999.00,-999.0,no,no,no,300534060653590,NOMAD,AWI/USIABP,MOSAiC,North
2020-07-16T20:19:58Z,1594930798,2020,20,20,198.8472,198.8472,79.53837,4.85936,-999.00,-999.00,-999.0,no,no,no,300534060653590,NOMAD,AWI/USIABP,MOSAiC,North
2020-07-16T20:30:02Z,1594931403,2020,20,30,198.8542,198.8542,79.5383,4.86223,-999.00,-999.00,-999.0,no,no,no,300534060653590,NOMAD,AWI/USIABP,MOSAiC,North
2020-07-16T20:39:59Z,1594931999,2020,20,40,198.8611,198.8611,79.53831,4.86398,-999.00,-999.00,-999.0,no,no,no,300534060653590,NOMAD,AWI/USIABP,MOSAiC,North
2020-07-16T20:50:03Z,1594932604,2020,20,50,198.8681,198.8681,79.53821,4.86594,-999.00,-999.00,-999.0,no,no,no,300534060653590,NOMAD,AWI/USIABP,MOSAiC,North
2020-07-16T21:00:00Z,1594933200,2020,21,0,198.875,198.875,79.53805,4.8682,-999.00,-999.00,-999.0,no,no,no,300534060653590,NOMAD,AWI/USIABP,MOSAiC,North
2020-07-16T21:09:56Z,1594933796,2020,21,10,198.8819,198.8819,79.53795,4.87102,-999.00,-999.00,-999.0,no,no,no,300534060653590,NOMAD,AWI/USIABP,MOSAiC,North
2020-07-16T21:20:00Z,1594934401,2020,21,20,198.8889,198.8889,79.5379,4.87383,-999.00,-999.00,-999.0,no,no,no,300534060653590,NOMAD,AWI/USIABP,MOSAiC,North
2020-07-16T21:29:57Z,1594934997,2020,21,30,198.8958,198.8958,79.53789,4.87653,-999.00,-999.00,-999.0,no,no,no,300534060653590,NOMAD,AWI/USIABP,MOSAiC,North
2020-07-16T21:40:01Z,1594935602,2020,21,40,198.9028,198.9028,79.53802,4.8789,-999.00,-999.00,-999.0,no,no,no,300534060653590,NOMAD,AWI/USIABP,MOSAiC,North
2020-07-16T21:49:58Z,1594936198,2020,21,50,198.9097,198.9097,79.53822,4.88153,-999.00,-999.00,-999.0,no,no,no,300534060653590,NOMAD,AWI/USIABP,MOSAiC,North
2020-07-16T22:00:02Z,1594936803,2020,22,0,198.9167,198.9167,79.53846,4.8834,-999.00,-999.00,-999.0,no,no,no,300534060653590,NOMAD,AWI/USIABP,MOSAiC,North
2020-07-16T22:09:59Z,1594937399,2020,22,10,198.9236,198.9236,79.5386,4.88516,-999.00,-999.00,-999.0,no,no,no,300534060653590,NOMAD,AWI/USIABP,MOSAiC,North
2020-07-16T22:20:03Z,1594938004,2020,22,20,198.9306,198.9306,79.53873,4.88723,-999.00,-999.00,-999.0,no,no,no,300534060653590,NOMAD,AWI/USIABP,MOSAiC,North
2020-07-16T22:30:00Z,1594938600,2020,22,30,198.9375,198.9375,79.53876,4.88909,-999.00,-999.00,-999.0,no,no,no,300534060653590,NOMAD,AWI/USIABP,MOSAiC,North
2020-07-16T22:39:56Z,1594939196,2020,22,40,198.9444,198.9444,79.53881,4.89007,-999.00,-999.00,-999.0,no,no,no,300534060653590,NOMAD,AWI/USIABP,MOSAiC,North
2020-07-16T22:50:00Z,1594939801,2020,22,50,198.9514,198.9514,79.53893,4.89104,-999.00,-999.00,-999.0,no,no,no,300534060653590,NOMAD,AWI/USIABP,MOSAiC,North
2020-07-16T22:59:57Z,1594940397,2020,23,0,198.9583,198.9583,79.53902,4.89259,-999.00,-999.00,-999.0,no,no,no,300534060653590,NOMAD,AWI/USIABP,MOSAiC,North
2020-07-16T23:10:01Z,1594941002,2020,23,10,198.9653,198.9653,79.53913,4.89447,-999.00,-999.00,-999.0,no,no,no,300534060653590,NOMAD,AWI/USIABP,MOSAiC,North
2020-07-16T23:19:58Z,1594941598,2020,23,20,198.9722,198.9722,79.5392,4.89628,-999.00,-999.00,-999.0,no,no,no,300534060653590,NOMAD,AWI/USIABP,MOSAiC,North
2020-07-16T23:30:02Z,1594942203,2020,23,30,198.9792,198.9792,79.53919,4.89832,-999.00,-999.00,-999.0,no,no,no,300534060653590,NOMAD,AWI/USIABP,MOSAiC,North
2020-07-16T23:39:59Z,1594942799,2020,23,40,198.9861,198.9861,79.53917,4.89935,-999.00,-999.00,-999.0,no,no,no,300534060653590,NOMAD,AWI/USIABP,MOSAiC,North
2020-07-16T23:50:03Z,1594943404,2020,23,50,198.9931,198.9931,79.53911,4.89962,-999.00,-999.00,-999.0,no,no,no,300534060653590,NOMAD,AWI/USIABP,MOSAiC,North
2020-07-17T00:00:00Z,1594944000,2020,0,0,199.0,199.0,79.53911,4.9,-999.00,-999.00,-999.0,no,no,no,300534060653590,NOMAD,AWI/USIABP,MOSAiC,North
2020-07-17T00:09:56Z,1594944596,2020,0,10,199.0069,199.0069,79.53906,4.90039,-999.00,-999.00,-999.0,no,no,no,300534060653590,NOMAD,AWI/USIABP,MOSAiC,North
2020-07-17T00:20:00Z,1594945201,2020,0,20,199.0139,199.0139,79.53914,4.90124,-999.00,-999.00,-999.0,no,no,no,300534060653590,NOMAD,AWI/USIABP,MOSAiC,North
2020-07-17T00:29:57Z,1594945797,2020,0,30,199.0208,199.0208,79.53925,4.90151,-999.00,-999.00,-999.0,no,no,no,300534060653590,NOMAD,AWI/USIABP,MOSAiC,North
2020-07-17T00:40:01Z,1594946402,2020,0,40,199.0278,199.0278,79.5393,4.90217,-999.00,-999.00,-999.0,no,no,no,300534060653590,NOMAD,AWI/USIABP,MOSAiC,North
2020-07-17T00:49:58Z,1594946998,2020,0,50,199.0347,199.0347,79.53932,4.90293,-999.00,-999.00,-999.0,no,no,no,300534060653590,NOMAD,AWI/USIABP,MOSAiC,North
2020-07-17T01:00:02Z,1594947603,2020,1,0,199.0417,199.0417,79.53926,4.90376,-999.00,-999.00,-999.0,no,no,no,300534060653590,NOMAD,AWI/USIABP,MOSAiC,North
2020-07-17T01:09:59Z,1594948199,2020,1,10,199.0486,199.0486,79.53918,4.90394,-999.00,-999.00,-999.0,no,no,no,300534060653590,NOMAD,AWI/USIABP,MOSAiC,North
2020-07-17T01:20:03Z,1594948804,2020,1,20,199.0556,199.0556,79.53905,4.90481,-999.00,-999.00,-999.0,no,no,no,300534060653590,NOMAD,AWI/USIABP,MOSAiC,North
2020-07-17T01:30:00Z,1594949400,2020,1,30,199.0625,199.0625,79.53886,4.90516,-999.00,-999.00,-999.0,no,no,no,300534060653590,NOMAD,AWI/USIABP,MOSAiC,North